Date String (YYYY-MM-DD hh:mm:ss) UTC,Instrument flags,absolute air pressure of the measurement (hPa),sample flow rate (lpm),inlet stack bypass flow (lpm),air temperature of the measurement (°C),ambient temperature measured by the external sensor (°C),aerosol sample conditioner tube jacket temperature (°C),OPC LED temperature (°C),internal box temperature (°C),relative humidity of the measurement (%),span deviation,mass concentration of particles derived from Lorenz-Mie calculation of OPC scattering (μg/m³),mass concentration of particles derived from Lorenz-Mie calculation of OPC scattering (μg/m³),mass concentration of particles derived from Lorenz-Mie calculation of OPC scattering (μg/m³)
DateTimeUTC,F1_M11,P_M11,Q1_M11,Q2_M11,T1_M11,T2_M11,T3_M11,T4_M11,T5_M11,U1_M11,ZSPAN_M11,X2_M11,X0_M11,X1_M11
2024-02-21 21:00:00,SystemResetWarning,0820.7,5.00,000.00,025.4,024.8,000.0,033.8,027.3,12.2,0000.0,0006.34,0010.87,0005.80
2024-02-21 21:01:00,SystemResetWarning,0820.6,5.00,000.00,025.4,024.8,000.0,033.8,027.3,11.7,0000.0,0006.30,0011.07,0005.74
2024-02-21 21:02:00,SystemResetWarning,0820.7,5.00,000.00,025.5,024.9,000.0,033.8,027.3,11.2,0000.0,0006.18,0011.35,0005.62
2024-02-21 21:03:00,SystemResetWarning,0820.8,5.00,000.00,025.5,024.9,000.0,033.8,027.4,11.8,0004.7,0006.01,0011.15,0005.44
2024-02-21 21:04:00,SystemResetWarning,0820.7,5.00,000.00,025.5,024.9,000.0,033.8,027.4,10.7,0000.4,0005.87,0010.72,0005.31
2024-02-21 21:05:00,SystemResetWarning,0820.6,5.00,000.00,025.5,024.9,000.0,033.8,027.4,08.3,0000.0,0005.82,0010.24,0005.25
2024-02-21 21:06:00,SystemResetWarning,0820.7,5.00,000.00,025.5,025.0,000.0,033.8,027.4,10.9,0000.0,0005.76,0010.06,0005.19
2024-02-21 21:07:00,SystemResetWarning,0820.7,5.00,000.00,025.6,025.0,000.0,033.8,027.4,13.1,0000.0,0005.70,0010.14,0005.09
2024-02-21 21:08:00,SystemResetWarning,0820.6,5.00,000.00,025.6,025.0,000.0,033.9,027.4,13.3,0000.0,0005.60,0010.01,0004.99
2024-02-21 21:09:00,SystemResetWarning,0820.6,5.00,000.00,025.6,025.0,000.0,033.9,027.4,13.6,0000.0,0005.42,0009.70,0004.84
2024-02-21 21:10:00,SystemResetWarning,0820.6,5.00,000.00,025.6,025.0,000.0,033.9,027.4,13.2,0000.0,0005.29,0009.51,0004.70
2024-02-21 21:11:00,SystemResetWarning,0820.8,5.00,000.00,025.6,025.0,000.0,033.9,027.4,13.5,0000.0,0005.13,0009.29,0004.53
2024-02-21 21:12:00,SystemResetWarning,0820.7,5.00,000.00,025.6,025.0,000.0,033.9,027.4,12.6,0000.0,0005.07,0009.12,0004.48
2024-02-21 21:13:00,SystemResetWarning,0820.8,5.00,000.00,025.6,025.1,000.0,033.9,027.5,10.7,0000.0,0005.00,0008.68,0004.44
2024-02-21 21:14:00,SystemResetWarning,0821.0,5.00,000.00,025.6,025.1,000.0,033.9,027.5,11.1,0000.0,0004.92,0008.79,0004.39
2024-02-21 21:15:00,SystemResetWarning,0820.6,5.00,000.00,025.7,025.1,000.0,033.9,027.5,12.2,0000.0,0004.94,0009.33,0004.41
2024-02-21 21:16:00,SystemResetWarning,0820.6,5.00,000.00,025.7,025.1,000.0,034.0,027.6,11.9,0000.0,0005.00,0010.01,0004.47
2024-02-21 21:17:00,SystemResetWarning,0820.7,5.00,000.00,025.7,025.1,000.0,034.0,027.6,11.1,0000.0,0005.02,0011.12,0004.49
2024-02-21 21:18:00,SystemResetWarning,0820.7,5.00,000.00,025.7,025.1,000.0,034.0,027.6,11.0,0000.0,0005.07,0011.45,0004.54
2024-02-21 21:19:00,SystemResetWarning,0820.7,5.00,000.00,025.7,025.1,000.0,034.0,027.6,12.2,0000.0,0005.06,0011.73,0004.55
2024-02-21 21:20:00,SystemResetWarning,0820.7,5.00,000.00,025.7,025.2,000.0,034.0,027.6,11.9,0000.0,0005.15,0012.54,0004.62
2024-02-21 21:21:00,SystemResetWarning,0820.7,4.99,000.00,025.8,025.2,000.0,034.0,027.6,11.5,0000.0,0005.20,0012.90,0004.68
2024-02-21 21:22:00,SystemResetWarning,0820.8,4.99,000.00,025.8,025.2,000.0,034.0,027.6,11.4,0000.0,0005.21,0013.62,0004.68
2024-02-21 21:23:00,SystemResetWarning,0820.7,5.01,000.00,025.8,025.2,000.0,034.1,027.7,11.4,0000.0,0005.20,0013.57,0004.69
2024-02-21 21:24:00,SystemResetWarning,0820.7,5.00,000.00,025.8,025.2,000.0,034.1,027.7,11.2,0000.0,0005.31,0014.46,0004.77
2024-02-21 21:25:00,SystemResetWarning,0820.7,5.00,000.00,025.8,025.3,000.0,034.1,027.7,12.3,0000.0,0005.49,0014.28,0004.93
2024-02-21 21:26:00,SystemResetWarning,0820.7,5.00,000.00,025.8,025.3,000.0,034.1,027.7,12.3,0000.0,0005.51,0013.92,0004.98
2024-02-21 21:27:00,SystemResetWarning,0820.8,5.00,000.00,025.9,025.3,000.0,034.1,027.7,11.9,0000.0,0005.43,0013.19,0004.91
2024-02-21 21:28:00,SystemResetWarning,0820.8,5.00,000.00,025.9,025.3,000.0,034.2,027.7,12.5,0000.0,0005.33,0012.63,0004.84
2024-02-21 21:29:00,SystemResetWarning,0820.8,5.00,000.00,025.9,025.3,000.0,034.2,027.8,12.5,0000.0,0005.21,0012.66,0004.74
2024-02-21 21:30:00,SystemResetWarning,0820.8,5.01,000.00,025.9,025.4,000.0,034.2,027.8,12.3,0000.0,0005.10,0012.80,0004.66
2024-02-21 21:31:00,SystemResetWarning,0820.8,5.00,000.00,025.9,025.4,000.0,034.2,027.8,12.0,0000.0,0005.01,0012.33,0004.60
2024-02-21 21:32:00,SystemResetWarning,0820.8,5.00,000.00,026.0,025.4,000.0,034.2,027.8,12.2,0000.0,0004.94,0012.05,0004.54
2024-02-21 21:33:00,SystemResetWarning,0820.9,5.01,000.00,026.0,025.4,000.0,034.2,027.9,11.7,0000.0,0004.95,0011.20,0004.56
2024-02-21 21:34:00,SystemResetWarning,0820.8,5.00,000.00,026.0,025.4,000.0,034.2,027.9,11.5,0000.0,0005.00,0011.58,0004.61
2024-02-21 21:35:00,SystemResetWarning,0820.9,5.01,000.00,026.0,025.5,000.0,034.2,027.9,11.8,0000.0,0005.02,0011.29,0004.64
2024-02-21 21:36:00,SystemResetWarning,0821.2,5.00,000.00,026.0,025.5,000.0,034.3,027.9,11.5,0000.0,0005.05,0011.14,0004.67
2024-02-21 21:37:00,SystemResetWarning,0821.0,5.00,000.00,026.1,025.5,000.0,034.3,027.9,08.7,0000.0,0005.15,0011.30,0004.77
2024-02-21 21:38:00,SystemResetWarning,0820.9,4.99,000.00,026.1,025.5,000.0,034.3,028.0,11.1,0000.0,0005.24,0011.40,0004.87
2024-02-21 21:39:00,SystemResetWarning,0820.9,4.99,000.00,026.1,025.5,000.0,034.3,028.0,08.6,0000.0,0005.31,0011.22,0004.92
2024-02-21 21:40:00,SystemResetWarning,0820.7,5.00,000.00,026.1,025.5,000.0,034.3,028.0,06.4,0000.0,0005.40,0010.66,0004.98
2024-02-21 21:41:00,SystemResetWarning,0820.8,5.00,000.00,026.1,025.6,000.0,034.3,027.9,07.0,0000.0,0005.48,0010.81,0005.06
2024-02-21 21:42:00,SystemResetWarning,0821.2,5.00,000.00,026.1,025.6,000.0,034.4,028.0,06.6,0000.0,0005.54,0011.09,0005.11
2024-02-21 21:43:00,SystemResetWarning,0821.2,5.01,000.00,026.1,025.6,000.0,034.4,028.0,06.1,0000.0,0005.58,0011.52,0005.14
2024-02-21 21:44:00,SystemResetWarning,0820.9,4.99,000.00,026.2,025.6,000.0,034.4,028.0,05.9,0000.0,0005.61,0011.78,0005.18
2024-02-21 21:45:00,SystemResetWarning,0821.0,5.00,000.00,026.2,025.6,000.0,034.4,028.1,05.8,0000.0,0005.70,0012.29,0005.24
2024-02-21 21:46:00,SystemResetWarning,0820.7,5.00,000.00,026.2,025.7,000.0,034.4,028.0,05.8,0000.0,0005.58,0011.62,0005.13
2024-02-21 21:47:00,SystemResetWarning,0820.8,5.01,000.00,026.2,025.7,000.0,034.5,028.0,05.9,0000.0,0005.47,0011.28,0005.03
2024-02-21 21:48:00,SystemResetWarning,0821.0,5.00,000.00,026.2,025.7,000.0,034.5,028.0,05.8,0000.0,0005.40,0011.29,0004.93
2024-02-21 21:49:00,SystemResetWarning,0820.8,5.00,000.00,026.2,025.7,000.0,034.5,028.1,06.0,0000.0,0005.07,0011.07,0004.61
2024-02-21 21:50:00,SystemResetWarning,0820.8,4.99,000.00,026.2,025.7,000.0,034.5,028.1,05.7,0000.0,0004.75,0010.82,0004.30
2024-02-21 21:51:00,SystemResetWarning,0820.9,4.99,000.00,026.2,025.7,000.0,034.5,028.1,05.7,0000.0,0004.39,0010.30,0003.97
2024-02-21 21:52:00,SystemResetWarning,0820.9,5.01,000.00,026.2,025.7,000.0,034.5,028.1,05.6,0000.0,0004.03,0009.79,0003.65
2024-02-21 21:53:00,SystemResetWarning,0820.9,5.00,000.00,026.3,025.7,000.0,034.5,028.1,05.8,0000.0,0003.70,0009.03,0003.33
2024-02-21 21:54:00,SystemResetWarning,0821.1,4.99,000.00,026.3,025.7,000.0,034.6,028.1,05.7,0000.0,0003.38,0008.07,0002.97
2024-02-21 21:55:00,SystemResetWarning,0820.9,4.98,000.00,026.3,025.7,000.0,034.6,028.1,05.6,0000.0,0003.10,0007.82,0002.49
2024-02-21 21:56:00,SystemResetWarning,0820.9,5.00,000.00,026.3,025.7,000.0,034.6,028.1,05.6,0000.0,0002.53,0007.24,0001.92
2024-02-21 21:57:00,SystemResetWarning,0821.0,5.01,000.00,026.3,025.7,000.0,034.6,028.1,05.6,0000.0,0002.11,0007.70,0001.47
2024-02-21 21:58:00,SystemResetWarning,0821.0,5.01,000.00,026.3,025.7,000.0,034.6,028.1,05.7,0000.0,0001.73,0007.38,0001.14
2024-02-21 21:59:00,SystemResetWarning,0821.1,4.99,000.00,026.3,025.7,000.0,034.6,028.1,05.5,0000.0,0001.18,0007.14,0000.66
